Temp
56 55 55 56 56 56 56 57 57 57 57 58 58 58 58 58 58 56 50 55 55 51 56 64 69 61 62 59 56 61 60 57 54 50 50 49 49 50 51 53 52 49 48 47 49 48 47 63 62 58 58 60 65 67
55 55 55 56 56 56 57 57 57 57 57 57 57 58 58 58 58 57 47 58 61 52 58 64 71 73 71 70 63 59 58 60 58 52 52 52 50 51 50 48 56 50 54 50 52 54 60 62 59 61 60 60 63 63
54 55 55 56 56 56 56 57 57 57 57 57 57 57 57 57 57 56 48 49 52 52 56 57 62 73 72 73 73 62 60 63 62 62 55 54 51 52 48 50 51 55 57 53 53 60 63 64 63 64 64 64 68 69
54 55 56 55 55 55 56 56 56 56 56 57 57 57 57 57 57 57 48 50 50 52 49 58 74 69 76 75 77 73 71 65 65 64 57 54 53 54 50 53 51 55 56 56 57 61 64 66 67 68 68 69 70 72
55 55 55 55 55 55 55 55 55 55 56 56 56 57 57 57 56 55 54 51 55 53 49 53 66 70 72 75 73 72 69 64 61 60 56 55 53 53 52 53 50 56 56 53 53 61 59 62 66 71 71 70 70 71
55 55 55 55 55 55 55 55 55 55 55 55 56 57 57 56 55 49 53 56 57 57 51 50 63 68 71 74 70 67 68 64 61 60 59 60 59 57 52 50 57 60 63 61 58 63 63 66 71 69 68 69 70 70
55 55 55 54 54 55 55 55 55 55 54 55 56 56 56 55 52 52 56 59 54 54 53 50 54 67 74 66 67 66 66 64 63 58 59 59 61 59 52 50 57 61 64 63 65 63 62 64 62 66 67 68 68 68
54 54 54 54 54 54 54 54 54 54 55 55 56 55 55 55 53 54 58 57 54 54 54 49 54 65 70 61 60 63 61 60 61 60 59 59 59 54 50 54 56 61 63 64 62 62 60 60 63 64 65 64 62 62
53 53 53 53 54 54 54 54 54 54 55 55 55 55 53 53 53 58 63 59 55 56 50 51 50 52 67 60 64 61 58 54 57 56 57 58 51 48 54 54 56 58 58 59 61 62 62 60 59 61 61 61 58 58
53 53 53 53 53 53 53 54 54 54 54 55 56 57 54 57 63 61 57 54 53 53 51 49 56 54 59 55 55 59 54 51 51 55 58 51 49 54 56 56 57 59 59 60 56 55 56 55 56 57 57 58 58 57
53 53 53 53 53 53 53 53 53 53 57 51 46 49 51 57 56 55 52 51 52 49 52 54 55 54 59 54 52 54 51 51 48 53 56 52 47 53 57 57 58 58 59 59 58 57 56 55 55 55 57 57 57 57
53 53 53 53 53 54 54 54 54 50 48 48 49 52 48 51 52 50 49 52 52 51 55 55 57 57 57 57 53 53 51 51 47 55 53 50 52 54 57 58 58 59 60 60 61 59 59 61 58 57 56 57 56 57
53 53 53 53 53 54 54 54 54 54 52 51 49 47 50 50 44 49 47 48 48 54 56 56 55 56 56 55 52 51 49 48 54 50 48 48 52 54 55 57 58 59 61 61 60 60 60 58 59 57 55 56 56 56
53 53 53 53 53 53 54 54 54 52 49 47 50 38 47 48 51 51 51 55 56 57 56 55 54 54 53 52 51 49 52 52 50 45 45 49 52 54 55 58 59 59 61 61 61 60 58 57 56 56 55 55 55 54
53 53 53 53 56 55 55 54 54 49 48 48 52 41 50 56 60 59 61 58 55 59 59 56 55 54 51 51 50 50 48 47 47 45 48 50 53 54 55 61 61 58 59 59 59 59 58 57 55 55 55 54 54 54
53 52 53 57 55 55 53 52 51 50 50 49 50 48 52 53 53 52 52 52 55 53 55 56 54 50 48 51 49 50 49 45 45 47 50 52 55 57 56 57 58 58 58 58 58 59 59 56 55 54 54 54 54 54
52 48 55 55 54 53 54 51 52 52 54 58 49 56 53 50 49 49 52 52 55 52 48 52 50 49 51 48 48 49 45 46 48 50 52 52 54 55 56 56 58 59 57 57 57 58 58 57 55 54 53 54 54 54
47 53 54 54 52 52 52 51 52 54 50 52 49 47 52 52 49 51 53 52 52 50 50 48 50 48 47 47 44 46 48 49 50 53 54 54 54 56 57 55 58 58 58 58 62 58 57 57 55 54 55 55 54 54
50 51 52 53 52 49 47 55 56 48 50 53 51 50 51 50 51 52 51 52 54 54 51 50 47 48 46 47 47 48 48 48 48 53 55 56 56 56 57 57 57 59 59 58 57 57 61 62 58 56 58 56 54 55
53 54 54 55 53 49 48 49 56 49 47 49 53 52 50 52 53 52 51 51 51 51 49 49 49 50 50 50 51 50 50 51 52 51 53 54 55 56 56 55 55 59 61 62 61 57 59 58 56 61 58 57 55 55
52 55 57 53 50 49 49 48 49 49 50 48 54 49 46 52 51 51 50 52 50 49 48 49 50 52 52 51 52 54 54 54 52 52 52 52 55 55 57 57 56 55 59 54 54 54 53 55 55 57 57 57 57 58
50 57 53 56 51 52 49 52 50 52 51 50 50 51 48 48 47 48 51 49 48 48 51 53 53 54 54 54 55 56 56 55 55 54 53 55 57 54 54 54 54 53 54 54 54 54 54 57 57 57 57 61 58 59
54 54 51 53 49 43 45 53 49 50 46 47 49 47 48 49 50 53 47 48 50 50 52 54 55 56 55 56 56 57 57 55 53 53 57 54 54 54 54 55 54 53 52 53 54 54 55 55 56 58 59 60 58 57
55 49 47 46 48 42 51 49 50 49 49 47 48 45 46 48 50 47 46 47 48 51 52 53 53 54 53 54 52 53 55 54 53 54 55 55 55 60 60 55 54 54 54 53 54 56 56 60 55 57 59 59 59 57
44 43 42 37 47 48 48 48 50 49 49 52 47 46 50 50 48 47 45 47 49 48 50 51 52 52 50 50 52 53 56 57 53 53 55 55 56 55 60 55 54 55 56 56 56 58 58 56 57 59 60 59 59 59
36 46 45 50 48 47 47 46 48 49 50 49 50 51 51 49 48 45 46 49 50 52 52 52 51 51 51 52 51 51 53 54 56 54 55 56 55 55 53 54 53 54 57 56 55 56 58 58 63 63 64 63 54 57
41 45 53 55 51 51 50 52 51 50 52 48 49 52 51 47 45 46 49 51 52 56 58 58 57 52 51 52 54 56 56 55 56 57 58 58 58 58 57 56 55 57 59 61 60 61 60 60 61 61 60 59 60 61
48 53 49 52 51 51 52 52 52 51 51 50 50 50 49 50 45 49 54 56 60 58 59 60 60 55 55 55 54 53 58 59 63 66 62 62 60 60 63 60 61 55 59 62 62 61 62 61 61 61 61 60 60 61
48 52 55 52 54 52 52 50 49 50 53 50 47 49 52 56 56 53 54 57 57 60 59 56 56 55 55 55 54 53 56 59 61 60 56 55 55 59 61 60 61 63 63 62 57 59 61 62 63 62 62 59 59 59
54 55 54 54 52 50 53 53 52 54 53 53 52 54 55 55 55 57 58 59 57 58 57 57 55 56 53 54 55 57 56 58 56 56 54 53 56 59 61 60 61 61 62 62 61 62 57 58 57 60 58 60 60 59
56 54 54 53 52 55 54 54 55 54 53 50 53 52 51 53 55 58 55 57 56 59 61 60 61 62 59 57 57 56 54 60 61 61 63 57 58 60 61 62 61 61 61 61 63 65 61 61 59 59 62 60 63 61
54 54 53 51 52 56 59 54 50 49 49 50 50 52 52 52 51 54 57 56 58 58 54 58 57 59 63 58 59 59 55 60 60 59 60 60 59 60 61 61 60 62 62 62 61 60 61 60 59 60 58 59 59 59
57 57 56 54 56 56 53 52 51 48 48 48 50 51 51 50 50 54 63 61 60 56 58 60 61 63 64 63 62 61 57 61 55 51 50 49 50 52 55 57 60 63 62 61 60 60 59 59 57 57 57 57 57 58
MSLP
1022.72 1022.20 1021.71 1021.11 1020.53 1019.99 1019.43 1018.80 1018.20 1017.61 1017.07 1016.53 1016.03 1015.59 1015.13 1014.73 1014.31 1014.01 1012.95 1012.07 1011.91 1011.33 1008.71 1007.38 1006.76 1006.33 1005.99 1005.96 1006.11 1006.05 1006.44 1006.73 1007.58 1008.72 1009.73 1010.08 1009.98 1009.80 1009.63 1009.75 1009.23 1009.63 1010.30 1010.16 1008.94 1008.16 1007.59 1006.31 1006.72 1006.94 1006.79 1007.07 1006.56 1006.23
1022.61 1022.09 1021.51 1020.87 1020.26 1019.64 1019.06 1018.48 1017.91 1017.35 1016.78 1016.25 1015.73 1015.29 1014.90 1014.55 1014.25 1013.93 1013.47 1011.59 1011.51 1011.49 1008.43 1006.70 1006.03 1005.41 1005.37 1004.94 1005.52 1005.50 1006.49 1005.96 1006.73 1008.18 1009.09 1009.49 1009.42 1009.61 1010.02 1010.16 1009.83 1009.96 1009.39 1010.77 1010.29 1009.07 1007.33 1006.47 1006.46 1006.85 1006.93 1006.53 1007.02 1006.67
1022.37 1021.85 1021.27 1020.64 1019.97 1019.35 1018.75 1018.16 1017.59 1016.99 1016.42 1015.87 1015.35 1014.89 1014.51 1014.18 1013.97 1013.87 1013.44 1012.54 1011.54 1010.70 1008.35 1006.81 1004.89 1003.25 1003.51 1003.54 1003.66 1004.72 1004.82 1004.75 1005.33 1005.90 1007.48 1008.35 1008.69 1009.11 1009.23 1009.42 1009.44 1009.50 1009.18 1009.03 1009.87 1008.74 1007.73 1006.72 1006.66 1006.64 1006.66 1005.83 1005.77 1006.56
1022.13 1021.55 1020.99 1020.39 1019.73 1019.06 1018.39 1017.75 1017.19 1016.65 1015.99 1015.35 1014.83 1014.32 1013.90 1013.61 1013.44 1013.40 1013.29 1012.31 1012.26 1011.31 1009.91 1006.51 1004.21 1003.38 1002.53 1002.57 1002.65 1002.92 1003.57 1003.99 1004.51 1005.14 1006.46 1007.54 1008.14 1008.39 1008.88 1008.90 1009.25 1009.20 1009.38 1009.50 1009.14 1007.78 1007.13 1006.59 1006.61 1006.29 1006.04 1005.70 1005.64 1004.81
1021.85 1021.28 1020.74 1020.11 1019.43 1018.74 1018.02 1017.31 1016.67 1016.07 1015.46 1014.82 1014.25 1013.73 1013.27 1012.95 1012.74 1012.58 1012.49 1011.82 1011.33 1011.52 1010.29 1007.69 1005.12 1003.18 1002.42 1002.16 1002.41 1002.60 1003.27 1003.79 1004.48 1005.30 1006.04 1006.68 1007.23 1008.00 1008.75 1009.07 1009.17 1009.07 1008.66 1008.52 1008.17 1007.55 1007.60 1007.13 1006.57 1005.94 1005.53 1005.68 1005.37 1005.30
1021.47 1020.91 1020.42 1019.81 1019.12 1018.41 1017.66 1016.89 1016.14 1015.42 1014.73 1014.04 1013.43 1012.94 1012.55 1012.30 1012.10 1012.07 1011.60 1010.77 1010.68 1010.73 1010.35 1008.61 1005.41 1003.59 1002.65 1002.45 1002.52 1002.81 1003.17 1003.54 1004.21 1004.89 1005.43 1005.40 1005.63 1006.32 1008.24 1008.82 1008.40 1008.08 1007.75 1008.05 1008.12 1007.59 1007.21 1006.71 1006.15 1005.91 1005.83 1005.95 1005.27 1005.03
1021.21 1020.63 1020.07 1019.48 1018.79 1018.04 1017.25 1016.43 1015.60 1014.78 1013.99 1013.17 1012.52 1011.99 1011.66 1011.65 1011.79 1011.36 1010.54 1009.85 1009.99 1010.09 1009.98 1008.86 1006.65 1003.81 1002.76 1002.84 1003.13 1003.38 1003.45 1003.85 1004.34 1004.98 1005.34 1005.40 1005.28 1005.79 1007.62 1008.53 1008.14 1007.96 1008.06 1007.77 1007.22 1007.01 1007.11 1007.35 1007.53 1007.22 1006.74 1006.49 1006.03 1005.71
1020.97 1020.42 1019.79 1019.11 1018.44 1017.73 1016.94 1016.09 1015.11 1014.10 1013.06 1012.11 1011.37 1010.87 1010.58 1010.72 1010.95 1010.17 1008.95 1008.58 1009.75 1010.05 1009.78 1008.88 1006.56 1004.56 1003.28 1003.87 1004.07 1003.80 1004.29 1004.48 1004.71 1005.14 1005.25 1005.49 1005.57 1006.59 1008.44 1008.48 1008.43 1008.23 1008.18 1007.99 1008.13 1008.15 1008.49 1008.39 1007.95 1007.62 1007.27 1007.31 1007.12 1007.20
1020.69 1020.09 1019.43 1018.74 1018.04 1017.32 1016.57 1015.75 1014.76 1013.53 1012.21 1011.03 1010.13 1009.71 1010.03 1010.18 1010.11 1009.23 1008.66 1008.91 1009.17 1009.80 1009.63 1008.64 1007.15 1005.72 1004.33 1004.51 1004.45 1004.57 1004.95 1005.69 1005.38 1005.39 1005.59 1005.91 1007.35 1008.15 1008.10 1008.39 1008.47 1008.31 1008.39 1008.65 1008.70 1008.84 1009.01 1009.12 1009.13 1008.79 1008.42 1008.26 1008.17 1007.99
1020.34 1019.69 1019.03 1018.35 1017.64 1016.93 1016.23 1015.54 1014.61 1013.28 1011.71 1010.06 1009.54 1009.95 1010.13 1009.41 1008.81 1008.61 1008.77 1008.94 1009.16 1009.17 1009.20 1008.45 1006.80 1006.17 1005.46 1005.63 1005.64 1005.87 1006.06 1006.32 1006.20 1005.60 1005.35 1006.80 1008.77 1008.79 1008.63 1008.75 1008.81 1008.73 1008.69 1008.66 1009.08 1009.71 1009.83 1009.89 1009.96 1009.55 1009.37 1009.42 1009.16 1008.82
1019.97 1019.33 1018.66 1017.95 1017.19 1016.58 1015.91 1015.28 1014.65 1013.44 1011.83 1011.73 1012.07 1011.73 1010.57 1009.19 1008.85 1008.53 1008.59 1008.67 1008.25 1008.43 1007.82 1006.91 1006.37 1006.24 1005.88 1006.17 1006.44 1006.57 1006.89 1006.80 1006.89 1006.35 1006.21 1007.52 1008.72 1009.07 1008.89 1008.91 1008.87 1008.93 1008.89 1009.36 1009.85 1010.00 1010.04 1010.08 1009.91 1009.50 1009.61 1009.73 1009.44 1008.86
1019.53 1018.88 1018.24 1017.53 1016.82 1016.19 1015.56 1015.01 1014.60 1014.35 1014.05 1013.90 1014.09 1013.24 1012.11 1010.35 1009.27 1008.96 1008.29 1007.60 1007.36 1007.11 1006.30 1006.00 1005.67 1005.73 1006.03 1006.00 1006.76 1006.86 1007.06 1007.13 1006.97 1006.37 1007.04 1008.17 1008.57 1008.81 1008.97 1009.17 1009.22 1009.46 1009.92 1010.25 1010.28 1010.23 1010.03 1009.81 1009.65 1010.06 1010.16 1009.89 1009.72 1009.12
1018.95 1018.29 1017.68 1017.04 1016.40 1015.83 1015.31 1014.82 1014.48 1014.29 1013.71 1013.46 1013.37 1012.82 1011.71 1010.28 1009.59 1008.75 1007.78 1007.21 1006.64 1005.95 1005.58 1005.51 1005.71 1005.86 1005.94 1006.09 1006.92 1007.11 1007.22 1007.29 1006.74 1007.21 1007.96 1008.83 1009.00 1009.31 1009.56 1009.62 1009.88 1009.93 1010.03 1009.99 1009.99 1010.05 1010.22 1010.21 1010.06 1009.93 1010.05 1009.99 1009.77 1009.49
1018.38 1017.61 1016.95 1016.38 1015.81 1015.27 1014.81 1014.45 1014.13 1013.91 1013.72 1013.21 1012.33 1011.78 1010.72 1009.43 1008.28 1007.50 1007.01 1006.31 1005.67 1005.24 1005.29 1005.47 1005.79 1006.03 1006.23 1006.62 1006.98 1007.24 1007.15 1007.10 1007.45 1008.05 1008.76 1009.20 1009.43 1009.61 1009.62 1009.66 1009.85 1010.04 1010.08 1009.99 1009.98 1009.99 1009.98 1009.94 1009.97 1010.08 1010.13 1010.24 1010.27 1010.30
1017.76 1016.83 1016.10 1015.40 1015.08 1014.74 1014.27 1013.83 1013.64 1013.77 1013.45 1012.65 1011.48 1010.62 1009.40 1008.30 1007.34 1007.15 1006.79 1006.65 1006.76 1005.39 1004.91 1005.58 1006.03 1006.29 1006.84 1006.97 1007.07 1007.31 1007.47 1007.84 1008.30 1009.03 1009.35 1009.30 1009.39 1009.60 1009.56 1009.37 1009.41 1009.53 1009.65 1009.66 1009.52 1009.69 1009.89 1010.09 1010.27 1010.43 1010.56 1010.63 1010.67 1010.70
1017.19 1016.26 1015.40 1015.11 1014.67 1014.00 1013.35 1012.89 1012.87 1013.22 1012.65 1011.93 1010.89 1009.89 1008.95 1008.63 1008.38 1008.24 1008.11 1008.21 1007.67 1007.87 1006.02 1005.95 1006.60 1006.89 1007.19 1007.20 1007.54 1007.80 1008.14 1008.94 1009.49 1009.39 1009.25 1009.27 1009.26 1009.13 1009.40 1009.40 1009.33 1009.23 1009.31 1009.46 1009.44 1009.54 1009.79 1010.11 1010.32 1010.36 1010.45 1010.59 1010.66 1010.75
1016.88 1016.09 1014.98 1014.77 1014.38 1013.46 1012.51 1012.68 1012.55 1012.45 1011.66 1010.67 1010.23 1009.87 1009.74 1009.63 1009.67 1009.30 1009.02 1009.14 1008.47 1008.98 1008.49 1007.88 1007.92 1007.63 1007.26 1007.51 1008.03 1008.51 1009.36 1009.93 1009.93 1009.73 1009.78 1009.54 1009.47 1009.29 1009.29 1009.41 1009.30 1009.24 1009.25 1009.26 1009.32 1009.35 1009.43 1009.61 1009.87 1010.11 1010.41 1010.30 1010.35 1010.41
1016.93 1015.69 1015.23 1014.73 1014.57 1013.65 1012.81 1012.44 1012.10 1011.35 1010.98 1010.43 1010.54 1010.82 1010.15 1009.75 1009.67 1009.65 1009.37 1009.30 1008.97 1009.06 1008.77 1009.62 1009.67 1008.23 1007.84 1008.25 1009.09 1009.58 1009.87 1009.96 1009.90 1009.62 1009.71 1009.59 1009.46 1009.26 1009.13 1009.27 1009.11 1009.08 1009.02 1009.00 1008.97 1009.00 1009.18 1009.40 1009.71 1009.82 1009.72 1009.81 1010.06 1010.17
1016.55 1015.83 1014.77 1014.16 1014.63 1014.53 1013.76 1012.05 1011.52 1011.33 1010.78 1010.36 1010.51 1010.26 1009.97 1009.71 1009.51 1009.77 1010.12 1009.85 1009.27 1009.09 1009.93 1009.87 1009.80 1008.91 1008.87 1009.00 1009.25 1009.51 1009.71 1009.74 1009.75 1009.33 1009.21 1009.41 1009.26 1009.21 1009.14 1009.13 1009.11 1008.98 1008.83 1008.77 1008.80 1008.95 1008.86 1008.90 1009.00 1009.05 1008.91 1009.31 1009.54 1009.60
1015.18 1014.49 1013.83 1013.47 1014.08 1014.12 1013.52 1012.19 1011.07 1011.29 1011.11 1010.54 1009.93 1009.94 1010.18 1009.80 1009.41 1009.34 1009.63 1009.57 1009.14 1009.12 1009.75 1009.66 1009.33 1008.89 1009.00 1009.08 1008.90 1009.23 1009.62 1009.66 1009.80 1009.85 1009.75 1009.41 1009.20 1009.11 1009.01 1009.00 1009.04 1008.81 1008.75 1008.72 1008.73 1008.69 1008.65 1008.65 1008.78 1008.57 1008.68 1009.01 1009.20 1009.26
1014.91 1013.81 1013.45 1013.70 1013.85 1013.91 1013.43 1012.43 1011.75 1011.31 1010.92 1010.67 1010.07 1010.29 1010.65 1010.05 1009.99 1009.76 1009.77 1009.75 1009.92 1010.01 1010.00 1009.52 1009.28 1009.18 1009.14 1008.99 1009.02 1009.14 1009.43 1009.41 1009.61 1009.72 1009.70 1009.50 1009.26 1009.09 1009.04 1008.99 1008.97 1008.97 1008.96 1009.05 1009.11 1009.00 1008.90 1008.79 1008.70 1008.58 1008.76 1008.77 1008.73 1008.79
1015.09 1013.97 1013.88 1013.34 1013.54 1013.21 1013.02 1011.91 1011.55 1011.02 1010.95 1010.56 1010.23 1010.21 1010.30 1010.13 1010.08 1010.09 1009.84 1010.01 1010.27 1010.44 1010.00 1009.47 1009.13 1009.03 1009.03 1009.14 1009.12 1009.05 1009.19 1009.32 1009.46 1009.40 1009.27 1009.33 1009.41 1009.25 1009.23 1009.12 1009.11 1009.19 1009.15 1009.15 1009.03 1009.07 1008.89 1008.84 1008.52 1008.46 1008.47 1008.37 1008.54 1008.61
1014.59 1014.22 1014.17 1013.68 1013.51 1013.49 1012.58 1011.38 1011.29 1010.84 1010.92 1010.30 1010.16 1010.37 1010.49 1010.37 1010.12 1009.91 1010.16 1010.49 1010.54 1010.37 1010.07 1009.56 1009.09 1008.87 1008.93 1009.13 1009.21 1009.34 1009.37 1009.42 1009.61 1009.50 1009.39 1009.45 1009.44 1009.35 1009.25 1009.20 1009.24 1009.26 1009.29 1009.11 1008.89 1008.86 1008.77 1008.50 1008.50 1008.47 1008.37 1008.43 1008.67 1008.75
1014.57 1014.82 1014.51 1014.00 1013.50 1013.19 1012.11 1011.61 1010.99 1010.85 1010.56 1010.33 1010.20 1010.31 1010.21 1010.17 1010.23 1010.41 1010.94 1010.99 1010.95 1010.60 1010.21 1010.06 1009.73 1009.61 1009.73 1009.60 1009.69 1009.65 1009.47 1009.53 1009.64 1009.54 1009.45 1009.52 1009.80 1009.43 1009.15 1009.39 1009.35 1009.26 1009.16 1009.14 1009.00 1009.02 1008.92 1008.73 1008.49 1008.48 1008.51 1008.64 1008.80 1008.96
1015.40 1015.04 1014.83 1014.12 1013.24 1012.73 1012.23 1011.61 1010.93 1010.69 1010.38 1010.05 1010.09 1009.94 1009.69 1009.68 1010.09 1010.85 1011.33 1011.30 1011.05 1010.78 1010.39 1010.14 1009.93 1009.77 1009.91 1009.95 1009.89 1009.63 1009.45 1009.52 1009.78 1009.92 1009.54 1009.45 1009.68 1009.55 1009.38 1009.61 1009.50 1009.23 1009.06 1009.04 1009.14 1009.07 1009.07 1008.92 1008.66 1008.61 1008.57 1008.47 1008.53 1008.55
1015.34 1014.37 1013.96 1013.25 1012.80 1012.48 1012.07 1011.70 1011.28 1010.78 1010.42 1010.14 1009.90 1009.62 1009.25 1009.69 1010.45 1011.22 1011.33 1011.03 1010.78 1010.33 1010.15 1010.02 1009.99 1010.09 1010.10 1009.97 1010.07 1009.97 1009.80 1009.57 1009.55 1009.65 1009.45 1009.10 1009.16 1009.49 1009.75 1009.81 1009.91 1009.63 1009.16 1009.01 1009.08 1009.11 1009.00 1008.94 1008.39 1008.50 1008.39 1008.05 1008.10 1008.46
1014.89 1013.81 1013.00 1012.39 1012.32 1012.09 1011.85 1011.32 1010.86 1010.66 1010.43 1010.41 1010.36 1009.91 1009.65 1009.91 1010.83 1011.18 1010.91 1010.57 1010.33 1009.89 1009.71 1009.69 1009.92 1010.35 1010.67 1010.59 1010.27 1009.81 1009.71 1009.62 1009.54 1009.31 1009.02 1008.90 1008.82 1008.76 1008.98 1009.19 1009.31 1009.09 1008.71 1008.77 1008.73 1008.68 1008.71 1008.67 1008.63 1008.48 1008.51 1008.21 1007.93 1007.75
1013.91 1013.21 1012.78 1012.22 1011.94 1011.61 1011.61 1011.30 1011.04 1011.05 1011.05 1010.61 1010.51 1010.37 1010.21 1010.18 1010.71 1010.57 1010.21 1010.01 1009.70 1009.63 1009.67 1009.91 1010.19 1010.13 1010.38 1010.48 1010.54 1010.45 1009.86 1009.36 1008.72 1008.47 1008.77 1008.67 1008.73 1008.87 1008.76 1008.56 1008.31 1008.23 1008.47 1008.46 1008.35 1008.45 1008.37 1008.24 1008.27 1008.21 1008.15 1008.15 1007.95 1007.81
1013.39 1012.49 1012.22 1011.91 1011.72 1011.83 1011.64 1011.43 1011.21 1011.06 1010.85 1010.83 1010.90 1010.53 1010.22 1010.02 1009.98 1010.11 1010.02 1009.63 1009.46 1009.71 1009.94 1010.53 1010.71 1010.11 1010.17 1010.69 1010.75 1010.65 1010.07 1009.59 1009.52 1009.65 1009.82 1009.81 1009.79 1009.47 1009.05 1008.61 1008.64 1008.49 1008.22 1008.17 1007.85 1007.78 1007.84 1007.99 1007.90 1007.79 1007.73 1007.81 1007.66 1007.44
1012.23 1011.62 1011.77 1011.67 1011.46 1011.25 1010.77 1010.55 1010.61 1010.66 1010.69 1010.71 1010.50 1010.30 1010.26 1010.41 1010.21 1009.70 1009.73 1009.61 1009.69 1009.87 1010.05 1010.05 1010.51 1010.57 1010.60 1010.77 1010.77 1010.39 1010.03 1009.95 1009.90 1010.08 1010.15 1010.02 1009.96 1009.61 1009.33 1009.11 1008.87 1008.55 1008.33 1008.20 1008.31 1008.10 1007.57 1007.34 1007.37 1007.42 1007.55 1007.70 1007.88 1007.89
1011.30 1011.12 1011.02 1010.76 1010.57 1010.06 1009.90 1010.44 1010.77 1011.03 1011.05 1010.84 1010.74 1010.71 1010.73 1010.67 1010.64 1010.15 1009.92 1009.91 1009.69 1009.57 1009.71 1009.67 1009.74 1009.83 1010.21 1010.33 1010.31 1010.41 1010.51 1009.98 1009.74 1009.49 1009.43 1009.52 1009.45 1009.40 1009.22 1008.88 1008.63 1008.49 1008.61 1008.57 1008.64 1008.68 1008.57 1008.46 1008.41 1008.17 1007.91 1007.99 1007.98 1008.09
1010.93 1010.73 1010.42 1010.30 1010.12 1010.27 1010.17 1010.72 1011.00 1011.12 1011.09 1010.99 1010.79 1010.59 1010.64 1010.78 1010.79 1010.37 1009.72 1009.76 1009.79 1009.90 1009.83 1009.76 1009.67 1009.71 1009.60 1009.69 1009.84 1010.00 1009.81 1009.71 1009.55 1009.47 1009.30 1009.41 1009.44 1009.43 1009.24 1009.03 1008.99 1008.89 1008.95 1009.11 1009.16 1009.14 1009.13 1009.11 1009.05 1008.92 1008.82 1008.58 1008.37 1008.35
1010.34 1010.01 1009.72 1009.79 1009.78 1009.77 1009.93 1010.33 1010.71 1010.98 1010.97 1010.92 1010.59 1010.37 1010.38 1010.51 1010.67 1010.45 1009.93 1009.73 1009.86 1010.10 1010.08 1010.04 1009.65 1009.60 1009.38 1009.28 1009.38 1009.38 1009.24 1009.30 1009.31 1009.29 1009.31 1009.33 1009.32 1009.33 1009.31 1009.28 1009.19 1009.12 1009.19 1009.38 1009.38 1009.30 1009.22 1009.22 1009.33 1009.34 1009.26 1009.13 1008.95 1008.81
Wind_Speed
18 19 19 20 20 20 21 21 21 21 20 21 20 19 18 17 17 9 7 5 2 3 8 6 4 2 5 1 2 4 5 4 4 5 4 4 3 1 4 4 4 6 4 3 3 2 3 4 3 5 7 2 4 6
18 19 19 20 19 21 21 21 20 19 21 21 20 19 17 16 13 9 4 4 2 4 9 3 13 17 13 17 3 1 6 4 5 5 2 3 2 4 6 3 1 3 7 4 1 4 5 4 3 2 4 6 4 2
18 17 18 20 20 20 19 19 20 21 21 21 20 19 19 14 10 5 4 4 3 3 7 1 8 13 7 11 7 3 4 3 2 6 4 2 3 4 4 4 2 2 2 4 8 14 7 3 2 4 6 4 6 9
16 17 19 19 19 19 20 20 21 21 21 20 21 21 19 15 11 6 3 2 1 3 2 8 5 6 9 5 5 6 6 2 4 3 4 4 3 2 4 3 3 2 6 5 6 5 4 4 5 6 9 9 12 12
16 17 17 18 19 20 22 22 22 22 22 23 22 22 19 16 13 7 6 5 4 2 3 6 11 7 6 4 2 3 3 0 1 2 2 3 4 5 2 3 2 5 6 4 5 1 4 5 6 6 7 7 8 5
15 16 16 19 20 21 22 23 24 24 23 24 22 20 19 16 10 1 3 2 7 4 1 4 5 5 3 4 1 3 1 0 2 3 3 2 6 5 4 2 2 2 3 3 5 5 4 6 7 12 8 12 12 7
16 17 17 19 20 21 22 23 24 25 27 25 23 21 17 10 2 3 4 3 3 0 1 5 5 6 3 2 3 2 3 1 3 1 1 1 1 5 4 3 5 1 6 3 5 4 7 11 5 9 10 12 10 10
17 18 19 20 21 22 23 24 26 27 27 28 26 20 14 6 6 5 3 8 6 1 1 2 6 3 3 1 1 2 1 3 3 3 3 1 4 4 4 2 4 4 6 8 8 8 4 3 9 11 10 11 12 10
18 19 20 21 21 22 23 24 26 28 30 30 25 11 1 1 1 3 4 10 1 4 2 2 2 4 4 3 2 4 3 1 3 2 3 5 4 3 6 5 5 4 4 6 7 8 7 8 6 8 8 10 8 10
19 20 20 21 21 21 22 23 25 28 32 26 3 4 3 2 12 4 2 1 1 2 1 4 2 2 4 3 4 2 3 0 2 5 2 5 2 1 3 5 6 6 7 6 6 5 5 5 5 5 6 5 5 6
19 20 20 21 22 22 22 20 20 25 10 6 6 3 5 15 3 1 2 3 2 3 4 5 5 3 3 3 1 1 2 1 2 6 4 2 3 4 6 7 6 7 8 7 5 3 4 3 3 5 6 4 6 8
20 21 21 21 21 20 18 16 12 5 1 4 5 6 4 4 2 1 4 3 4 5 3 4 3 5 2 4 3 3 2 3 4 1 3 3 3 4 7 7 6 7 7 6 4 5 4 4 3 2 3 5 5 6
21 21 21 21 22 20 18 16 14 11 11 1 2 3 2 2 2 4 4 4 2 3 2 1 1 3 3 4 2 3 2 4 2 2 3 4 4 6 6 5 6 6 7 6 5 4 5 3 3 3 3 4 5 6
22 22 22 22 20 18 15 15 15 8 3 2 3 5 5 4 5 4 4 4 6 4 3 3 1 4 1 3 2 3 4 2 2 2 1 3 5 7 7 6 6 7 8 7 7 6 4 4 4 3 4 5 4 5
24 25 25 14 9 13 16 18 14 2 2 3 2 4 5 4 1 3 6 6 11 5 4 3 4 4 1 2 1 3 0 2 2 2 3 3 5 4 3 4 6 6 5 3 2 4 6 6 4 3 2 2 2 2
26 22 3 8 19 23 23 12 2 3 3 3 4 4 5 6 5 6 4 3 8 10 3 4 3 3 2 3 2 4 2 3 1 3 3 0 2 6 3 3 5 4 3 3 3 3 4 6 6 5 4 4 3 3
23 5 11 22 23 25 12 1 2 4 4 4 3 3 3 2 1 1 1 1 4 6 4 2 4 5 0 2 2 4 3 2 2 2 1 3 1 3 2 1 2 3 2 3 4 4 3 5 6 4 5 5 6 6
5 9 23 24 16 8 3 2 2 3 3 4 4 4 2 3 3 2 1 2 3 3 2 4 3 4 2 3 1 1 2 2 3 4 1 3 2 2 3 3 1 2 3 5 3 3 4 5 6 5 7 6 5 5
15 15 25 23 4 2 3 3 3 2 4 2 4 3 0 3 1 2 1 2 1 3 4 2 4 3 1 2 3 3 3 3 1 1 2 4 3 3 1 1 3 4 3 2 2 3 4 5 5 5 4 3 3 3
24 16 16 11 9 2 3 5 2 0 3 4 3 2 2 3 3 2 2 2 2 3 1 3 4 3 3 1 2 4 3 3 1 1 2 3 2 2 3 3 3 4 2 1 2 3 1 1 1 2 2 3 3 2
10 4 5 4 2 3 3 3 4 3 3 2 3 2 1 0 3 3 1 2 3 3 1 2 1 1 4 2 2 2 3 3 2 3 3 1 2 0 1 1 1 1 0 1 2 2 2 2 2 3 3 3 4 3
5 8 3 2 2 2 3 4 3 3 1 4 4 1 2 1 1 2 2 2 2 1 2 2 1 3 3 3 2 3 3 4 3 1 4 2 2 2 2 2 1 2 1 2 2 1 1 3 3 2 3 3 2 2
9 1 2 2 2 3 8 2 2 3 2 4 3 3 2 3 2 3 3 1 1 1 2 2 2 3 2 1 4 3 3 2 1 2 2 1 1 2 2 3 2 2 3 3 1 3 0 0 1 2 2 2 1 1
1 2 3 3 1 4 4 3 2 2 2 4 2 2 3 2 2 2 3 3 2 4 4 5 2 3 3 3 2 0 1 1 2 3 1 3 3 3 2 3 2 2 3 3 4 4 4 3 3 3 4 5 4 2
3 5 3 5 4 2 3 5 4 1 3 2 2 3 3 2 2 3 2 3 2 2 3 4 3 1 3 2 1 1 3 2 2 2 3 1 2 3 3 3 1 2 1 4 3 2 2 2 1 3 4 2 2 3
1 3 3 2 3 1 3 4 4 4 4 4 3 4 3 3 4 3 2 2 2 2 2 2 2 3 3 2 2 1 2 1 2 2 4 3 3 5 3 3 1 3 4 3 4 3 3 4 4 3 4 7 6 5
3 2 2 2 2 3 3 3 4 3 2 4 4 4 3 3 2 3 3 3 1 3 1 3 4 5 3 4 4 3 2 1 3 4 4 3 3 5 5 5 4 4 4 5 4 3 3 4 4 5 6 7 7 6
4 2 2 4 3 2 3 3 2 5 5 3 3 4 4 3 2 4 2 1 2 2 3 4 5 5 5 3 4 5 4 4 4 2 5 5 4 4 4 2 1 3 4 5 4 5 5 4 4 3 1 1 3 3
4 3 1 6 1 1 2 2 2 2 2 2 1 2 2 1 1 1 3 3 2 3 4 4 2 3 6 0 3 4 2 5 7 8 7 3 5 5 5 4 3 4 4 4 6 5 6 4 4 4 5 2 4 1
3 1 1 2 2 4 5 5 3 2 0 1 2 2 3 5 3 1 1 2 4 1 3 3 6 5 3 2 2 2 3 3 3 4 2 2 3 4 4 3 4 3 3 5 4 6 11 7 4 4 1 2 4 4
2 1 3 3 4 5 4 4 3 1 2 2 1 1 2 3 3 4 1 1 1 1 1 2 2 2 5 3 1 2 3 3 4 4 1 3 1 1 3 5 5 4 5 5 9 10 8 8 6 6 7 6 6 4
2 4 2 3 4 4 2 2 1 2 4 3 3 1 1 2 2 3 2 2 2 2 2 2 3 2 4 4 4 4 8 5 3 3 5 3 3 3 4 4 4 5 6 7 6 6 7 7 6 8 7 7 5 6
3 2 3 1 0 3 2 4 4 2 0 2 2 1 2 2 2 3 2 1 2 2 2 2 3 3 2 3 4 4 4 3 2 1 1 1 1 2 1 2 3 4 5 5 4 4 7 8 6 7 7 8 7 7
Wind_Direction
334 333 334 334 336 335 333 332 333 334 333 334 334 336 338 342 346 349 275 245 168 268 278 247 290 345 344 77 99 247 34 320 43 81 137 215 165 198 26 343 111 135 89 329 338 71 197 333 359 148 218 99 263 269
335 335 333 336 333 333 334 333 332 330 331 331 331 331 333 334 337 340 283 309 320 201 249 266 263 250 233 234 178 125 194 240 153 105 193 163 193 144 170 160 283 148 154 164 14 295 252 264 236 282 175 152 196 289
334 333 335 336 335 333 332 330 331 332 330 328 326 326 328 327 325 317 274 288 335 310 299 342 254 256 208 220 182 149 306 227 104 164 148 159 161 125 143 214 105 10 128 127 79 247 265 292 212 209 220 224 259 178
333 334 334 328 326 327 325 324 324 326 328 324 322 322 323 321 316 293 238 265 308 268 266 284 320 323 299 174 188 165 184 306 119 150 140 159 162 155 181 142 132 176 114 203 238 260 316 42 270 252 234 238 260 268
330 330 328 326 326 326 327 325 324 322 319 317 320 322 320 319 312 282 235 238 230 130 259 280 309 256 225 173 214 21 97 42 115 88 93 201 118 127 66 98 183 189 184 170 210 195 182 239 296 328 10 5 347 48
319 321 327 328 327 326 325 324 323 321 319 315 310 309 311 313 317 275 6 215 215 204 283 316 287 290 152 162 253 316 323 2 100 127 219 248 172 103 116 147 266 177 112 185 203 237 179 309 25 18 22 5 346 323
329 329 326 325 325 325 324 323 322 320 318 312 311 307 301 291 238 183 193 206 110 76 92 308 301 275 152 83 333 347 357 264 113 290 320 223 244 103 87 145 211 138 129 72 28 66 16 25 8 5 16 12 359 13
331 328 323 322 323 323 323 324 322 319 315 314 311 306 293 255 247 302 258 242 142 146 108 258 269 338 43 289 260 167 87 24 340 206 0 66 0 66 75 125 141 104 102 54 58 64 108 42 21 19 21 21 18 13
324 322 320 320 321 321 322 323 323 320 316 314 311 310 97 97 196 252 172 139 160 143 203 273 213 255 2 335 330 15 73 27 300 174 228 90 351 44 188 146 110 81 94 108 64 55 49 50 31 12 9 9 14 341
323 322 320 319 318 318 320 323 323 318 318 310 16 29 324 230 321 295 24 105 52 225 214 220 242 275 77 5 355 53 17 204 1 257 80 76 76 20 137 133 127 97 92 89 69 33 31 36 27 15 8 356 335 316
321 321 320 318 316 320 322 320 321 321 347 10 5 312 298 300 11 356 256 167 204 213 199 231 182 178 310 97 215 139 187 308 36 272 116 98 134 184 157 117 109 103 87 82 110 110 88 95 24 19 357 6 346 340
320 320 320 318 319 318 317 316 320 350 263 282 294 293 292 322 351 247 243 272 170 220 252 146 200 154 234 107 93 317 133 40 236 267 70 103 257 134 107 109 108 116 124 142 147 124 85 25 9 23 356 9 5 348
318 317 317 316 315 311 307 304 308 293 306 201 186 257 168 271 12 214 230 264 246 252 229 120 51 137 21 56 78 90 107 236 13 63 181 193 147 142 139 133 155 174 155 164 160 151 141 109 46 49 28 14 23 13
319 316 314 314 307 297 295 296 313 325 294 259 212 305 172 246 234 212 238 245 240 184 163 140 124 126 176 66 143 116 236 92 200 116 42 164 171 163 171 172 162 186 184 180 173 168 142 102 92 61 38 16 25 26
320 318 315 299 291 303 305 302 296 228 241 262 257 242 232 268 321 289 28 349 359 306 111 67 43 91 20 107 135 75 97 239 57 139 188 220 181 163 191 164 146 139 156 141 144 157 172 165 154 150 160 108 58 25
323 319 255 312 330 326 318 308 165 185 251 236 254 306 310 355 333 3 19 356 16 324 318 55 53 55 197 156 111 210 165 62 222 220 220 186 138 130 179 166 167 164 158 185 204 176 178 181 179 187 175 181 181 193
319 236 327 332 330 319 310 228 176 223 248 272 273 23 352 46 215 259 133 43 47 308 17 334 96 257 159 126 144 27 89 161 287 322 275 208 157 129 151 185 184 168 157 255 208 202 188 170 171 163 206 226 204 203
249 298 311 311 329 305 278 204 256 255 253 270 37 300 266 185 254 294 99 305 146 165 50 4 300 271 101 84 69 128 132 212 219 139 235 275 181 178 144 183 244 257 204 217 215 182 205 177 189 223 235 232 206 215
290 295 292 292 285 317 318 277 201 296 269 323 192 249 299 299 184 167 176 309 56 95 125 150 324 346 32 140 145 152 199 160 198 322 45 293 276 238 254 276 296 292 296 289 290 236 229 219 206 226 230 160 196 226
305 289 276 277 168 216 272 271 67 45 281 266 303 337 136 301 325 334 68 346 355 78 83 187 193 213 147 211 140 157 172 134 176 66 312 319 273 285 301 288 265 257 226 330 6 23 343 335 240 204 140 168 148 233
312 284 11 146 170 209 264 307 315 214 278 300 308 68 136 320 272 318 90 156 100 199 313 323 78 121 122 123 112 122 95 112 119 155 196 283 296 171 29 356 34 356 45 311 283 315 328 213 218 171 168 186 202 215
266 322 315 261 275 263 250 247 208 265 300 260 341 18 249 258 273 271 311 51 100 132 203 296 245 154 128 147 150 125 110 82 57 31 44 117 40 4 322 272 356 316 338 263 198 69 339 266 189 190 175 207 151 130
295 260 276 290 345 31 263 339 353 293 324 285 5 23 18 340 306 9 39 340 328 319 293 325 43 54 86 11 91 89 108 105 56 27 57 132 18 337 353 6 16 79 64 351 169 130 277 294 93 104 83 74 88 27
71 310 308 299 232 259 299 298 230 264 288 313 9 323 277 236 135 70 50 338 302 325 342 323 344 17 19 35 58 133 283 54 68 350 79 98 59 344 104 93 99 121 157 153 72 59 37 27 41 68 66 59 44 334
12 298 103 310 271 310 292 304 293 316 293 310 200 288 278 140 84 61 54 305 315 260 265 304 32 131 151 181 224 245 15 97 97 355 299 142 120 3 10 71 150 235 281 87 103 63 1 292 177 160 180 181 30 314
47 258 141 317 304 327 319 329 329 305 301 351 331 307 7 60 58 22 328 297 275 269 294 338 68 48 34 79 124 140 212 180 62 19 290 276 190 170 194 157 106 290 248 178 147 217 253 290 293 23 322 325 318 283
330 303 273 235 210 291 300 270 272 285 13 22 333 327 328 72 94 256 273 286 275 288 3 116 64 73 57 12 346 346 355 306 213 231 254 265 176 171 157 172 188 234 209 217 220 219 236 251 262 269 280 287 272 270
253 270 243 279 325 238 216 265 289 28 347 321 21 5 9 19 210 239 200 237 300 16 46 60 85 80 37 12 354 338 340 309 317 1 19 34 23 18 354 343 231 129 150 184 209 218 221 204 210 246 200 246 295 341
261 244 278 287 307 29 311 290 293 201 232 87 30 286 264 172 136 170 267 284 335 101 68 60 337 133 196 298 307 286 324 28 52 50 64 35 10 343 342 358 20 344 318 303 288 259 275 277 264 279 295 304 296 106
246 181 110 284 277 242 226 189 207 244 305 227 253 346 49 355 311 341 359 35 70 122 204 200 153 170 213 197 219 348 11 37 73 117 96 293 266 292 332 4 335 336 357 9 327 300 300 301 332 335 319 349 27 28
248 262 254 231 237 233 204 107 88 60 315 354 322 33 141 153 319 309 285 319 31 44 338 280 193 144 147 143 139 69 325 290 265 300 276 227 204 20 352 354 4 39 34 34 49 38 30 33 24 15 34 93 113 120
264 256 283 279 305 55 54 70 40 35 359 1 326 263 160 142 231 282 269 90 17 349 301 119 119 149 158 184 200 184 196 233 249 311 335 353 38 25 10 37 37 47 42 38 48 60 51 41 27 26 15 12 57 88
263 282 280 268 248 248 275 133 169 142 243 308 304 251 203 134 107 274 18 55 127 142 80 328 314 347 274 212 194 200 217 234 138 144 312 309 301 22 33 60 46 52 43 34 47 80 68 58 54 51 37 26 17 5